Preview of NWS' New Version of Forecast
This preview is not operational and should not be used for support decisions.

Regional Weather Roundup (RWR)

Issued by National Weather Service (NWS)

                            
000
ASUS43 KTOP 231508
RWRKS 

WEATHER ROUNDUP FOR KANSAS
NATIONAL WEATHER SERVICE GOODLAND KS
1000 AM CDT TUE JUL 23 2019

NOTE:  "FAIR" INDICATES FEW OR NO CLOUDS BELOW 12,000 FEET WITH NO
SIGNIFICANT WEATHER AND/OR OBSTRUCTIONS TO VISIBILITY.

KSZ001>006-013>018-027>032-041>047-231600-
NORTHWEST KANSAS
  
CITY           SKY/WX    TMP DP  RH WIND       PRES   REMARKS
GOODLAND       SUNNY     67  55  65 S18G24    30.37S                  
HAYS           SUNNY     72  53  51 E6        30.35S                  
HILL CITY      SUNNY     73  51  46 SE9       30.36S                  
RUSSELL        SUNNY     72  52  49 CALM      30.33F                  
$$

KSZ061>065-074>080-084>089-231600-
SOUTHWEST KANSAS
  
CITY           SKY/WX    TMP DP  RH WIND       PRES   REMARKS
DODGE CITY     SUNNY     70  55  59 SE7       30.37S                  
ELKHART        SUNNY     71  60  67 S13       30.38S                  
GARDEN CITY    SUNNY     69  55  60 S8        30.37S                  
GREAT BEND     SUNNY     70  58  65 VRB5      30.35S                  
LIBERAL        MOSUNNY   68  56  65 SE12      30.38S                  
PRATT          SUNNY     72  53  50 NE6       30.34F                  
$$

KSZ066>073-081>083-090>101-231600-
SOUTHEAST KANSAS
  
CITY           SKY/WX    TMP DP  RH WIND       PRES   REMARKS
CHANUTE        SUNNY     76  58  53 NE10      30.26F                  
COFFEYVILLE    SUNNY     76  56  49 N13       30.24R                  
HUTCHINSON     SUNNY     74  54  49 N5        30.32S                  
MEDICINE LODGE   N/A     74  54  49 E10       30.31F                  
NEWTON           N/A     72  55  55 NE7       30.32S                  
PARSONS        SUNNY     76  60  57 N7        30.26S                  
WICHITA INTL   SUNNY     75  55  49 NE6       30.30S                  
WICHITA JABRA  SUNNY     73  55  53 VRB5      30.30S                  
WICHITA MCCONL SUNNY     73  52  47 NE6       30.30F                  
WINFIELD       SUNNY     74  53  48 NE13      30.30S                  
$$

KSZ007>012-019>026-033>040-048>060-102>105-231600-
NORTHEAST KANSAS
  
CITY           SKY/WX    TMP DP  RH WIND       PRES   REMARKS
CONCORDIA      SUNNY     73  56  54 VRB5      30.33S                  
EMPORIA        SUNNY     73  56  54 N8        30.30R                  
LAWRENCE       SUNNY     74  55  51 NE7       30.28S                  
MANHATTAN      SUNNY     72  56  57 VRB3      30.31S                  
MARYSVILLE     SUNNY     70  59  68 CALM      30.32S                  
OLATHE IND     SUNNY     72  57  59 N8        30.29R                  
OLATHE EXE     SUNNY     72  57  59 VRB6      30.28R                  
SALINA         SUNNY     72  56  57 CALM      30.32S                  
TOPEKA BILLARD SUNNY     72  56  57 NE8       30.28F                  
TOPEKA FORBES  SUNNY     73  57  57 NE8       30.28F                  
$$